Wind_Speed
11 10 9 9 8 9 10 12 14 15 17 18 19 20 20 20 19 18 17 15 15 15 14 14 14 13 12 10 9 8 6 6 5 4 5 6 9 12 14 15 15 17 19 22 24 25 26 28 30 33 37 40 43 46 49 51 54 57 60 62 62 63 64 66 69 73 76 79 82 86 90 93 96 99 102 106 110 114 118 121 123 124 125 126 128 131 134
10 8 8 8 9 10 12 14 16 18 19 20 20 20 20 20 19 17 15 14 13 13 14 14 13 12 11 9 8 7 5 5 4 4 5 6 9 12 13 14 15 17 20 22 24 25 26 28 31 34 37 40 43 46 49 53 56 60 63 65 67 68 68 70 70 71 74 77 81 86 90 94 97 100 103 106 109 112 116 120 123 124 127 128 127 129 131
8 8 8 9 11 12 14 16 18 19 20 20 20 20 20 19 18 17 14 13 13 12 13 14 12 11 10 8 7 6 4 3 3 4 5 6 9 11 13 14 15 16 19 22 24 25 26 28 32 35 38 40 43 47 50 53 57 61 64 67 70 72 74 75 77 78 80 83 86 89 92 96 98 101 104 105 107 111 114 118 122 124 126 129 129 130 130
8 9 10 11 13 14 16 18 19 20 20 20 20 20 19 18 17 16 14 13 13 13 13 13 11 10 9 8 6 5 3 2 3 4 4 6 8 10 12 13 14 16 18 21 23 25 27 29 33 36 38 41 44 47 50 54 57 60 64 67 70 73 75 78 81 83 86 88 90 92 94 97 99 101 103 105 107 110 113 117 122 124 124 126 129 130 130
9 11 12 13 15 16 18 19 20 20 20 20 20 20 19 18 16 15 14 13 13 13 13 12 11 10 8 7 6 4 2 1 2 4 4 5 8 10 12 13 14 15 17 20 22 24 27 30 33 35 38 40 44 47 50 53 57 60 63 65 68 71 74 78 81 83 85 87 90 92 94 96 98 100 102 105 107 109 113 116 121 124 124 124 126 128 129
11 12 13 14 16 17 18 19 20 20 20 19 19 19 18 17 16 15 14 14 13 13 13 12 11 9 8 7 6 5 3 1 2 3 4 5 7 10 11 13 14 15 17 19 22 24 27 30 32 35 37 40 44 47 50 53 55 59 62 64 67 69 72 76 79 82 85 87 89 91 93 95 97 100 102 105 107 109 112 115 119 123 126 127 127 128 130
12 14 15 16 17 18 19 19 20 20 19 19 19 18 17 16 15 14 13 13 13 13 12 12 11 10 8 8 7 5 4 2 3 4 4 5 7 9 11 13 14 16 17 20 22 25 28 30 32 35 38 41 44 47 50 52 55 58 61 63 66 68 71 74 77 81 83 86 88 90 92 94 96 99 101 104 107 109 111 114 117 122 126 128 128 129 131
12 14 15 16 17 18 19 19 19 19 19 19 18 17 16 15 14 13 13 13 13 12 12 12 11 11 10 8 7 6 5 4 4 4 4 5 8 10 12 14 15 16 17 20 23 26 28 30 33 36 39 42 45 47 49 51 54 57 60 62 65 67 70 72 76 79 82 84 87 89 92 94 95 97 100 103 106 108 110 114 118 121 125 127 128 128 129
12 14 15 16 17 18 19 19 19 19 18 18 18 16 15 14 13 12 12 12 12 11 11 11 11 12 11 10 8 7 7 6 5 5 5 6 8 10 12 14 15 16 18 20 23 26 28 31 33 36 39 42 44 47 49 51 54 56 59 62 65 67 69 72 74 77 80 83 86 88 91 93 94 96 99 101 104 107 110 114 118 121 124 127 129 129 129
12 14 15 16 17 18 18 19 19 19 18 18 17 16 14 13 12 12 12 11 11 10 10 10 11 12 12 11 10 9 8 7 6 6 6 6 8 10 12 14 16 17 19 21 23 26 28 31 33 36 39 42 44 47 49 51 54 56 59 61 64 66 69 71 73 76 79 82 85 88 90 92 94 96 98 101 103 107 110 113 116 120 124 128 130 130 129
13 13 14 15 16 17 18 18 18 19 18 18 17 16 14 13 13 12 11 10 10 9 10 10 10 11 12 12 11 10 10 8 7 7 7 7 9 11 13 15 16 17 19 22 24 26 29 31 34 36 39 42 44 47 49 51 54 56 59 61 64 66 69 71 74 76 79 81 84 86 88 91 94 97 99 101 104 107 110 113 116 119 123 126 129 129 128
12 13 14 15 15 16 16 17 18 18 18 18 17 16 15 14 13 12 11 10 10 9 10 10 10 11 12 12 12 11 11 10 9 8 8 8 9 12 14 15 16 18 20 22 24 27 29 32 34 37 39 42 44 47 49 52 54 56 58 61 63 66 69 71 74 76 79 81 83 85 88 92 95 97 99 101 103 105 109 112 115 117 119 123 126 127 128
13 13 13 14 14 15 16 16 17 18 18 18 18 17 16 15 14 13 11 11 10 10 10 10 10 11 12 13 13 12 12 11 10 10 9 9 10 12 14 15 17 18 20 23 25 27 30 32 35 37 40 42 44 47 49 52 54 56 59 61 63 66 69 71 74 77 79 81 84 87 90 93 94 96 99 101 102 104 106 109 113 116 118 121 124 127 128
13 13 13 13 14 15 16 16 17 18 18 19 18 18 17 16 15 13 12 11 11 10 10 11 11 12 13 13 13 13 13 12 11 11 10 9 11 13 15 16 17 19 21 23 25 28 30 32 35 37 40 42 44 47 50 52 54 57 59 62 64 66 69 72 74 77 80 82 84 87 89 91 93 96 99 102 104 106 108 111 114 116 118 121 125 128 129
12 13 14 14 14 15 16 17 17 18 19 19 19 19 18 17 16 15 13 12 12 11 11 12 12 13 14 14 14 14 14 13 12 12 11 11 11 14 15 17 18 20 21 23 25 28 30 32 34 37 39 41 44 47 50 52 55 58 60 62 65 67 70 73 76 78 81 82 84 85 87 90 93 96 99 102 105 108 110 112 114 116 118 121 125 128 129
11 13 14 15 16 16 16 17 18 19 20 20 20 20 19 19 17 16 15 14 13 12 12 13 13 14 15 15 16 16 15 15 14 13 13 12 13 15 16 18 19 20 22 24 26 27 29 32 34 36 38 41 43 46 49 53 56 59 61 63 66 68 71 74 76 78 81 84 86 88 89 92 94 97 99 101 104 106 108 110 112 115 118 120 123 127 130
9 11 14 15 16 17 18 18 18 19 20 21 21 21 21 20 19 18 17 15 14 14 14 14 14 15 16 17 17 17 17 17 16 15 15 14 15 16 18 19 20 21 22 24 26 28 30 32 34 36 38 41 43 46 49 52 55 58 61 64 66 69 71 73 76 78 81 83 86 89 91 92 94 96 98 101 103 105 107 108 110 113 116 119 122 126 130
9 10 13 15 16 17 19 19 20 20 21 22 23 23 23 22 21 20 19 17 16 16 16 15 15 16 17 18 19 19 19 18 18 17 17 17 17 18 19 20 21 22 23 24 26 28 30 32 34 36 38 41 44 46 49 51 54 58 60 63 66 69 71 73 76 78 80 83 85 88 91 92 94 96 98 100 102 104 106 108 111 113 116 119 122 125 129
8 10 12 14 16 17 19 20 21 22 22 23 24 24 24 24 23 22 21 20 19 18 18 17 17 17 18 19 20 20 20 20 20 20 19 19 20 20 21 22 23 24 25 26 27 29 31 33 35 37 39 41 44 47 50 52 55 58 61 63 66 68 71 74 76 78 80 83 84 86 88 91 93 95 98 100 101 103 106 109 111 113 115 118 121 123 127
9 10 12 14 16 17 19 20 21 23 23 24 25 25 26 26 26 25 24 23 22 21 20 19 19 18 19 19 20 22 22 22 22 22 22 22 23 23 24 25 25 26 27 28 29 30 32 34 36 38 40 42 44 47 50 53 56 58 61 64 67 69 71 74 77 79 81 83 85 86 89 91 94 95 98 99 101 103 106 108 110 112 114 117 119 122 125
10 11 12 14 16 17 19 20 22 23 24 25 26 26 27 28 28 27 27 26 25 24 23 22 21 20 20 20 21 23 23 23 24 24 25 25 25 26 26 27 28 28 29 30 31 32 33 35 37 39 41 43 45 47 50 53 56 59 62 65 68 70 72 75 78 81 83 85 88 90 92 94 95 96 97 99 101 103 104 106 108 110 113 115 117 120 123
13 13 13 14 15 17 19 20 22 24 25 26 27 27 28 28 29 29 29 28 28 27 26 25 24 23 22 22 23 24 25 25 25 26 27 27 28 28 29 29 30 31 31 32 32 33 35 36 38 41 42 44 46 48 50 53 56 59 62 65 68 71 73 76 79 82 85 87 88 89 91 93 94 96 97 99 100 101 103 105 107 109 111 113 116 118 121
16 16 16 16 16 17 18 20 22 23 25 27 27 28 29 29 29 30 30 30 30 30 29 28 27 25 25 24 24 25 26 26 27 27 28 29 30 30 31 31 32 33 33 34 35 35 36 38 40 42 44 45 47 49 51 53 56 58 62 65 68 71 73 75 78 80 83 85 87 88 90 92 94 95 97 98 99 100 102 104 106 108 110 112 114 117 120
18 18 19 19 19 19 19 20 21 23 24 26 28 29 30 30 30 30 30 31 32 32 32 31 30 28 28 27 27 27 27 28 28 29 30 30 31 32 33 33 34 34 35 36 37 37 38 40 41 43 45 47 49 51 52 54 57 59 62 65 68 70 72 75 77 79 81 84 86 87 89 92 94 95 97 98 99 100 101 103 105 107 109 111 113 116 119
19 20 21 21 22 22 22 22 22 23 24 25 27 29 30 31 31 31 31 32 32 33 33 34 33 31 30 30 29 29 29 29 30 30 31 32 33 33 34 35 36 36 37 38 39 39 40 41 43 44 47 49 50 52 54 56 58 61 63 66 68 70 72 74 76 79 81 83 84 86 88 91 93 95 96 97 98 99 100 102 104 106 108 111 113 115 118
20 21 22 23 24 24 25 25 25 25 25 25 26 27 29 31 32 32 32 33 33 34 34 35 35 34 33 32 32 32 31 31 32 32 33 34 34 35 36 37 38 38 39 39 40 41 42 43 44 46 48 51 52 53 56 57 59 62 65 67 69 70 72 73 76 78 80 82 83 85 87 90 91 93 94 95 96 97 99 100 102 104 107 109 112 115 117
21 22 23 24 25 25 26 26 27 27 27 27 26 27 28 29 31 33 34 34 34 35 35 36 36 36 35 35 34 34 34 34 34 34 35 35 36 37 38 39 39 40 41 41 42 43 44 45 46 48 50 52 54 55 57 59 61 63 66 68 69 70 72 74 76 78 80 82 83 84 86 89 91 92 93 94 95 96 97 99 101 102 105 107 110 113 116
21 22 23 24 25 26 27 27 27 28 28 28 28 28 28 29 30 31 33 34 35 35 36 36 37 37 37 37 37 36 36 36 36 36 36 37 37 38 39 40 41 42 42 43 44 45 46 46 48 49 51 53 55 56 58 61 63 64 66 68 69 71 72 75 77 79 81 82 83 84 87 89 91 92 93 94 95 95 96 97 99 101 103 105 108 111 114
20 21 22 23 24 25 26 27 27 28 28 29 29 30 30 29 29 30 31 33 35 36 37 37 38 38 38 39 39 38 38 39 39 39 39 38 38 39 40 41 42 43 44 45 46 46 48 49 49 50 52 54 56 57 59 61 64 66 67 68 69 71 73 75 77 78 80 82 83 85 87 89 91 92 93 94 94 94 95 96 98 100 102 104 107 110 113
20 20 20 21 21 22 23 25 26 27 28 28 29 30 30 31 30 30 30 32 33 35 37 38 38 39 39 40 40 41 41 41 41 41 41 41 41 41 41 42 43 44 45 47 47 48 49 50 51 52 53 55 56 58 59 61 64 66 67 68 69 71 72 74 76 78 79 81 83 85 87 89 91 91 92 94 94 94 94 95 97 98 100 103 106 109 112
19 19 19 18 18 19 20 22 24 26 27 28 28 29 30 31 31 30 30 31 31 33 35 37 39 39 40 40 41 42 43 43 43 43 43 43 43 43 43 43 44 45 46 48 49 50 51 52 53 54 55 56 58 59 60 61 64 65 66 67 69 70 72 74 76 77 78 80 82 84 87 89 90 91 92 93 93 94 94 94 96 97 99 102 105 108 111
18 18 18 18 19 19 21 22 24 25 26 27 28 29 29 30 30 30 30 31 31 32 33 36 38 40 41 41 42 43 43 44 45 45 45 45 45 45 46 46 46 47 47 48 50 51 52 53 54 55 56 57 59 61 62 62 63 64 66 67 69 70 72 74 75 77 78 80 81 83 86 88 89 90 91 92 92 93 93 94 95 96 98 101 105 107 109
18 19 20 20 21 22 24 25 26 27 27 28 28 28 29 29 29 30 31 31 31 32 32 33 36 39 41 42 43 43 44 45 46 46 46 47 47 47 48 48 49 49 49 50 51 52 53 54 55 56 57 58 59 61 62 63 64 65 66 67 69 71 73 74 75 76 78 80 82 84 86 87 88 90 91 91 91 92 92 93 94 95 98 101 104 106 109
20 21 22 24 25 26 27 28 28 28 29 29 29 28 28 28 29 30 31 32 32 33 32 33 34 36 39 41 43 44 45 45 46 47 47 48 49 49 49 50 50 51 52 52 53 54 54 55 56 56 57 58 59 60 62 63 64 64 66 67 69 71 73 74 75 77 78 80 82 84 86 87 88 89 90 90 90 90 91 92 93 94 97 100 103 105 108
23 24 26 27 28 29 29 29 29 29 29 29 29 29 28 29 29 30 31 32 33 34 34 34 34 35 36 38 41 43 45 46 47 47 48 49 50 50 51 52 52 53 53 54 54 56 56 57 57 58 58 59 60 60 61 62 63 64 66 68 69 71 73 74 75 77 79 80 82 84 85 86 87 88 89 89 89 89 90 91 92 94 97 100 102 104 106
27 27 28 29 29 30 30 29 29 28 28 28 28 28 29 29 29 30 31 33 34 35 35 35 35 35 36 37 38 41 43 45 47 48 48 49 50 51 52 53 54 55 55 55 56 57 58 58 59 59 59 60 60 60 60 61 63 65 67 68 70 72 73 74 76 77 79 81 82 83 84 84 86 87 88 87 87 87 88 90 91 94 97 99 101 103 106
29 29 29 29 29 29 29 29 28 28 27 28 28 28 29 29 30 31 32 33 35 36 36 36 36 36 36 37 38 39 41 43 45 47 48 49 50 51 52 53 54 55 56 57 57 58 59 59 60 60 60 60 60 61 61 62 64 66 67 69 71 72 73 75 76 78 80 82 82 82 83 84 85 86 86 86 86 86 87 88 91 93 96 98 100 103 105
29 28 28 27 27 27 27 27 27 27 28 28 28 29 29 30 30 31 32 34 35 36 37 38 38 38 38 38 39 39 40 41 43 45 47 49 50 51 52 53 54 55 57 57 58 58 59 60 60 61 61 62 62 62 63 64 65 67 69 70 72 73 75 76 78 79 81 82 82 82 82 83 84 85 85 85 84 84 85 88 90 93 95 97 100 103 105
26 25 24 24 25 25 26 27 27 28 28 29 30 30 31 31 32 32 33 34 36 37 38 39 40 40 40 40 40 40 41 41 42 43 45 47 49 51 52 53 54 55 56 57 58 58 58 60 60 61 62 63 63 64 64 66 67 68 70 72 74 75 76 77 79 80 81 81 81 81 82 83 84 84 84 83 82 82 84 87 89 92 94 97 100 103 105
23 23 23 24 24 25 26 27 28 28 29 30 31 31 32 33 34 34 35 36 37 38 39 40 41 42 42 43 43 43 43 43 43 43 43 44 46 48 50 52 54 55 56 57 58 57 57 58 59 60 60 61 63 64 65 66 68 69 71 73 75 76 77 78 79 80 80 80 80 81 82 83 83 83 82 81 81 81 83 86 88 91 94 97 100 102 104
22 22 23 24 25 26 26 27 28 29 29 30 31 32 33 35 35 36 37 38 38 39 40 41 42 43 44 44 45 45 45 45 45 45 45 45 45 47 49 51 52 54 55 57 57 57 57 57 58 59 59 59 61 62 64 65 68 69 71 72 74 76 77 79 79 79 78 78 79 80 82 82 82 80 79 79 80 81 83 85 88 90 94 97 99 101 104
22 23 24 25 26 27 28 29 29 30 31 31 32 33 34 35 36 37 38 39 39 40 41 42 43 43 44 45 45 46 46 47 47 47 47 47 47 48 49 50 50 51 52 54 55 55 55 55 56 58 58 58 59 61 62 64 66 68 69 71 73 75 77 78 78 77 77 77 78 80 81 81 79 77 77 78 80 81 83 85 88 90 94 97 99 101 103
22 23 24 25 26 28 29 29 30 31 32 32 32 32 32 33 34 35 36 37 38 39 40 41 42 42 43 44 44 45 45 46 47 47 48 48 48 48 49 50 50 49 50 50 51 52 52 52 53 55 57 57 57 59 60 62 65 67 68 69 71 73 75 76 76 76 76 77 78 79 79 77 75 75 76 78 79 82 84 86 88 91 94 96 99 101 103
21 22 23 25 26 27 28 28 29 29 30 30 30 30 30 31 31 31 32 32 33 35 36 37 38 39 40 41 41 42 42 43 44 44 45 45 45 45 46 47 47 47 47 48 49 50 50 50 50 52 54 55 56 57 59 60 62 64 66 67 69 71 73 74 75 75 76 77 78 77 76 74 73 74 76 78 80 82 85 87 89 91 94 96 99 101 104
21 21 22 23 24 25 26 27 27 28 28 28 28 28 28 28 28 28 29 29 30 31 31 32 33 34 35 36 37 37 37 38 39 39 40 40 40 40 41 42 42 42 43 44 46 46 47 48 49 50 51 52 53 54 56 58 60 62 64 65 67 70 72 73 75 76 76 76 75 74 72 72 73 74 76 78 81 83 86 88 90 92 94 96 99 101 104
20 21 22 22 24 25 26 27 28 28 28 28 27 27 27 26 26 26 27 27 28 28 29 29 30 31 31 32 33 33 33 34 35 36 36 36 36 36 37 38 38 38 39 41 43 44 45 45 47 48 49 50 51 53 54 57 59 61 63 65 68 70 72 74 74 75 74 73 72 71 71 72 74 75 77 80 82 85 87 90 92 94 95 97 99 102 105
21 22 23 25 26 27 28 29 30 30 30 30 30 29 28 27 27 26 26 26 26 27 27 28 28 29 29 30 31 31 31 31 32 32 32 32 33 34 35 36 37 37 36 38 40 42 43 43 44 46 47 49 51 53 55 57 60 62 64 66 69 70 72 72 72 71 71 70 69 70 71 73 75 77 80 82 84 87 89 91 94 95 97 99 101 103 105
23 24 25 26 28 29 30 30 31 32 32 32 32 32 31 31 30 30 29 29 28 29 29 29 29 29 29 29 30 30 29 29 29 29 29 29 30 31 33 34 36 37 37 37 38 40 41 43 44 46 48 50 52 55 57 59 62 64 65 66 67 68 69 69 69 69 69 69 69 71 72 75 77 80 82 84 86 89 91 93 95 97 99 101 102 104 106
23 24 26 27 29 30 31 32 33 33 34 34 34 34 34 34 33 33 32 32 32 32 32 31 31 30 30 30 30 30 30 29 29 30 30 31 31 32 34 35 37 38 39 40 40 41 43 45 46 48 51 53 54 56 57 59 61 62 63 64 65 66 68 68 69 69 70 70 71 72 74 76 78 81 84 86 88 91 93 95 97 99 100 102 104 106 107
22 24 25 27 28 30 31 32 33 34 35 36 37 37 37 36 36 35 35 34 34 34 33 33 33 33 32 32 32 33 34 35 34 34 34 34 34 35 37 39 39 40 42 44 44 45 47 48 49 50 51 53 54 55 56 57 59 61 62 64 65 66 68 69 69 70 71 72 73 74 76 78 80 82 85 87 90 92 94 97 99 101 102 104 106 107 108
22 23 24 26 28 29 30 32 33 35 36 37 38 39 39 40 39 39 38 37 36 36 35 36 36 36 36 35 35 36 37 39 39 39 39 38 38 39 40 42 43 43 44 46 47 48 49 50 50 51 52 54 55 57 57 58 60 62 63 64 65 67 68 68 69 70 71 73 74 75 77 79 81 83 86 88 90 93 95 99 102 104 105 106 107 108 109
24 25 26 27 28 30 31 33 34 35 37 38 39 40 41 41 42 42 42 41 40 39 38 37 38 38 38 39 39 39 39 41 42 43 43 43 43 43 43 44 45 46 46 47 48 49 52 53 54 55 56 57 58 59 59 59 61 63 64 64 66 67 68 68 68 69 71 73 75 76 78 80 82 84 87 89 91 94 97 101 104 106 106 107 107 109 110
Wind_Direction
138 138 141 145 148 147 146 145 147 148 146 143 145 145 142 139 137 137 141 147 151 156 158 159 159 156 151 145 135 125 110 93 80 73 65 56 46 39 31 26 23 22 20 18 16 16 16 15 14 14 13 12 10 8 8 7 6 6 6 6 8 10 12 12 11 10 8 8 8 7 7 7 7 7 7 7 6 6 6 6 7 6 6 8 8 8 9
138 140 144 149 150 148 149 150 150 148 146 146 148 146 143 141 140 142 147 153 159 162 162 162 162 159 155 148 139 128 108 87 72 66 63 54 42 33 26 21 20 20 19 18 17 17 17 16 14 14 13 11 9 8 7 7 6 5 5 4 5 6 8 9 9 10 9 8 8 8 7 7 7 7 7 7 6 6 5 6 7 6 5 6 8 9 10
140 146 150 152 151 150 152 152 150 149 148 150 150 147 145 144 144 148 154 160 167 170 168 166 166 163 159 154 147 137 116 93 69 60 60 51 38 28 21 18 17 18 18 18 17 17 16 16 15 13 12 10 9 8 7 6 5 4 4 3 3 3 4 5 6 6 7 7 8 8 8 7 7 6 6 6 5 5 5 6 7 7 6 6 7 8 9
148 152 153 153 153 153 153 152 151 151 152 154 152 150 148 148 149 154 160 167 173 174 172 172 171 168 165 162 159 152 134 103 64 53 51 43 30 22 17 13 13 14 15 15 15 14 14 14 14 12 11 9 8 7 6 5 4 3 3 3 2 1 1 2 3 4 5 5 5 6 7 6 6 5 5 5 5 5 5 5 6 8 8 7 6 7 8
153 153 152 154 155 155 154 153 154 156 157 158 155 153 153 154 156 160 166 173 178 178 179 180 177 173 174 176 177 176 170 126 43 37 37 28 21 15 11 8 8 9 10 10 11 11 12 12 12 10 9 8 7 6 5 3 2 2 2 2 2 1 360 0 1 2 3 4 4 4 5 5 5 4 4 4 5 5 5 5 6 7 8 8 7 7 7
153 153 153 155 157 157 156 156 158 161 163 162 159 157 158 159 162 166 171 177 181 184 186 187 184 183 186 191 195 200 209 239 360 13 17 12 8 7 4 2 1 2 2 4 5 7 9 9 8 8 7 6 5 4 3 2 1 1 1 1 1 1 360 359 360 0 1 2 3 3 3 4 4 3 3 3 4 5 5 5 5 6 7 8 8 7 7
153 155 156 157 158 158 159 161 164 166 167 165 163 163 164 164 167 172 177 181 185 189 193 194 193 195 200 207 211 219 234 266 327 348 353 355 357 359 358 356 355 355 355 357 0 3 6 6 5 4 3 3 2 2 1 0 360 360 0 0 0 0 360 359 359 359 360 1 1 2 2 3 3 3 2 2 3 4 4 4 5 5 6 6 7 7 7
155 157 158 158 160 161 164 166 169 171 170 168 168 169 169 170 175 179 184 188 191 194 198 200 203 207 214 221 225 232 250 271 305 324 330 339 347 352 353 351 349 349 350 353 356 360 2 2 1 1 0 360 359 359 359 358 358 358 359 359 359 359 359 359 358 358 358 359 360 0 1 2 2 2 2 1 2 3 3 3 4 5 6 6 7 7 7
154 158 159 160 162 166 169 172 174 174 173 173 174 175 175 177 182 187 191 194 196 198 203 207 212 217 222 228 231 240 253 268 290 304 311 325 338 345 346 344 343 345 347 351 354 357 359 359 358 358 358 357 357 357 357 356 357 357 357 357 357 357 358 358 358 357 357 358 359 359 0 1 1 1 2 1 1 1 2 3 4 4 5 6 7 7 8
155 159 162 164 167 171 175 178 179 178 177 178 181 182 183 186 191 196 199 201 200 202 208 215 221 224 226 230 233 242 253 264 281 295 301 313 329 337 338 338 338 341 345 349 353 355 356 356 356 356 356 356 356 355 355 355 355 355 356 356 356 355 356 356 356 357 357 357 357 358 359 359 360 0 1 1 0 1 2 3 3 4 5 6 7 7 8
157 161 164 168 173 177 182 185 185 183 182 184 186 189 191 195 200 205 207 208 208 211 217 224 230 230 228 229 233 240 250 261 276 287 294 305 320 330 331 331 334 338 343 347 350 352 353 353 354 354 354 354 354 353 353 353 354 354 355 355 354 354 354 355 355 356 356 356 357 357 357 358 359 360 0 1 1 0 1 2 3 3 4 5 6 6 7
159 163 168 173 178 184 189 192 191 188 187 189 192 195 199 204 208 212 214 215 217 223 229 234 238 234 228 227 231 238 246 257 270 281 288 300 315 323 326 327 331 336 341 344 347 349 349 350 352 352 352 353 352 352 352 352 352 353 353 354 354 354 353 354 354 355 355 355 355 355 356 357 358 359 359 0 1 0 0 1 1 2 3 4 5 6 6
164 168 173 179 185 191 195 198 197 195 194 195 198 202 206 211 215 219 221 223 226 233 240 242 241 233 227 227 232 238 245 253 267 276 284 297 312 319 321 325 329 334 339 342 344 346 348 349 350 351 351 351 351 350 351 351 351 351 352 352 353 353 353 353 354 354 354 354 354 355 356 357 356 357 358 359 0 0 360 360 1 1 2 3 4 5 6
171 173 178 185 192 198 202 204 204 203 202 202 204 207 213 218 221 225 228 229 233 241 246 246 241 232 227 229 235 240 245 252 264 274 282 294 307 314 318 323 329 333 337 340 343 345 347 348 349 350 350 350 349 349 349 349 349 349 350 351 351 352 352 352 353 353 353 354 354 355 355 355 355 356 357 358 359 0 360 360 0 1 1 2 3 5 6
179 181 184 189 196 203 208 211 212 211 211 211 211 214 218 223 227 231 234 236 238 244 247 246 241 234 230 234 239 242 245 252 262 272 279 289 301 310 316 321 327 331 335 339 341 344 347 348 348 349 348 348 347 347 347 347 347 348 348 349 349 350 351 351 352 352 352 352 353 354 354 355 355 356 356 357 358 360 360 359 359 360 0 1 3 4 5
191 191 193 196 200 206 212 217 219 220 220 220 220 221 224 228 232 236 240 242 243 246 248 246 243 238 235 237 242 244 247 253 261 270 278 285 295 305 312 318 323 327 332 336 338 342 344 345 346 346 345 345 345 345 345 345 345 346 346 347 347 348 349 350 351 351 351 351 351 352 354 355 355 355 356 356 357 359 360 359 358 359 359 0 2 3 3
205 206 205 205 207 210 214 219 224 227 229 228 228 228 230 233 236 240 244 247 247 249 250 249 246 243 240 241 244 246 249 254 261 268 275 281 289 299 307 313 318 322 327 332 334 337 340 341 342 342 342 342 343 343 343 344 344 344 344 345 346 347 348 349 349 350 351 351 351 351 353 354 355 355 355 355 356 357 358 358 358 358 359 359 1 2 3
217 220 219 218 218 218 218 221 225 230 234 235 235 235 236 238 240 244 247 250 251 252 252 252 250 248 246 246 246 248 251 256 261 267 273 279 285 293 301 307 312 317 322 326 329 332 334 336 337 338 339 339 340 340 341 342 342 342 343 344 344 345 346 347 348 349 349 350 351 351 351 353 354 354 354 355 355 356 356 357 358 358 358 359 360 1 2
231 232 233 232 231 229 228 227 227 230 234 238 240 240 241 243 244 246 249 253 254 255 255 254 253 253 252 251 249 250 253 258 262 266 271 277 282 288 295 301 307 312 316 320 324 327 329 331 333 335 336 336 337 338 339 340 340 341 341 342 343 344 345 346 347 348 349 349 350 351 351 351 353 354 354 354 354 355 356 356 357 357 357 358 359 0 1
236 239 241 242 241 240 239 237 236 235 236 238 241 242 245 247 248 249 251 254 256 258 258 257 257 256 257 255 253 253 256 260 264 266 270 275 280 285 291 296 302 306 311 315 319 322 325 328 329 331 333 334 335 336 337 338 339 339 340 341 342 343 344 345 346 347 348 348 349 350 351 351 352 353 354 354 354 355 355 356 356 356 357 357 358 359 0
241 243 244 246 247 247 246 245 243 242 242 242 243 244 245 248 250 252 253 255 258 260 260 260 260 259 260 259 257 256 258 261 265 268 270 274 279 283 288 293 297 302 307 311 315 318 321 324 326 328 330 331 333 334 335 336 337 338 339 340 341 342 343 344 345 346 347 348 348 349 351 351 352 352 353 353 353 354 355 355 355 355 356 356 357 358 359
248 249 250 251 252 253 253 252 250 248 247 247 247 247 247 249 251 253 255 257 258 260 262 263 263 262 262 263 262 261 261 263 266 269 271 274 278 282 287 291 295 299 303 307 311 314 317 320 323 325 327 328 330 332 334 335 336 337 338 339 341 342 343 344 345 346 346 347 348 349 350 350 351 351 352 353 353 353 353 354 354 354 355 356 356 357 358
254 255 256 258 260 261 261 260 259 256 254 252 251 250 251 251 252 254 256 258 259 261 262 264 265 265 265 265 266 265 265 266 268 270 271 274 277 282 286 290 293 297 300 303 307 311 314 317 319 322 324 326 328 329 331 333 334 336 337 338 340 341 342 343 344 345 346 346 347 348 349 349 350 351 351 352 352 352 353 353 353 353 354 355 355 356 357
261 261 261 262 263 265 266 267 266 265 263 260 257 255 254 254 254 255 256 258 259 261 262 264 265 266 266 267 268 269 269 269 269 271 273 275 278 281 285 288 292 295 298 301 304 307 311 314 316 319 321 323 325 327 329 331 333 334 336 338 339 340 341 342 344 345 345 346 346 347 348 349 349 350 351 351 351 351 352 352 352 352 353 354 355 355 356
266 266 266 266 265 265 266 267 269 270 269 268 265 262 259 258 257 256 257 258 259 261 262 263 265 266 267 268 269 271 272 272 272 273 274 276 278 281 284 287 291 294 296 299 302 305 308 311 313 316 318 320 323 325 327 329 331 332 334 336 338 339 341 342 343 344 345 346 346 347 347 348 349 349 350 350 350 350 350 351 351 351 352 353 354 355 356
270 271 271 271 271 271 270 269 270 271 272 273 272 269 266 263 261 259 259 259 260 260 261 263 264 266 268 269 270 271 273 274 275 275 276 277 279 281 283 286 289 292 295 297 300 303 305 308 311 313 316 318 320 323 325 327 329 331 333 335 337 338 340 341 342 343 344 345 346 346 347 347 348 348 348 349 350 350 350 350 350 351 351 352 353 353 355
273 274 275 276 276 276 276 275 274 274 274 275 276 276 274 271 267 264 262 261 261 261 262 262 264 265 267 269 270 272 273 274 276 277 278 278 280 282 284 286 288 291 293 296 299 301 304 306 309 311 314 316 318 321 323 325 328 330 332 334 336 337 339 340 342 343 344 344 345 346 346 346 347 347 348 348 349 349 349 349 349 350 351 351 352 352 353
276 277 278 279 279 279 279 279 278 278 277 276 276 278 279 278 275 271 267 264 263 263 263 263 264 265 267 268 271 272 274 275 276 278 279 280 281 282 284 286 288 290 292 295 297 300 302 305 307 309 312 314 317 320 322 324 326 329 331 333 335 336 338 340 341 342 343 344 344 345 345 346 346 346 347 347 348 348 348 348 348 349 350 351 351 352 353
280 280 281 281 281 281 281 281 281 281 280 279 278 277 278 279 280 279 275 271 267 265 265 265 265 266 267 268 270 272 274 275 277 278 280 281 283 284 285 286 288 290 292 294 296 299 301 303 306 308 310 312 315 318 321 323 325 328 330 332 334 336 337 339 340 342 342 343 343 344 345 345 345 345 346 346 347 347 347 347 347 348 349 350 350 351 352
288 288 288 289 289 288 286 285 284 283 283 282 281 279 278 278 279 281 281 279 274 270 267 267 267 268 268 269 270 271 273 275 277 278 280 282 284 285 287 288 289 290 292 294 296 298 300 302 305 307 309 311 314 316 319 322 324 327 329 331 333 334 336 338 339 340 341 342 342 343 344 344 344 344 344 345 346 346 346 346 346 347 349 349 349 350 351
296 297 298 299 299 296 293 290 288 288 287 286 284 283 281 279 279 280 282 283 281 277 272 269 268 269 269 270 270 271 272 274 276 278 280 282 284 285 287 289 290 291 293 294 296 298 300 302 304 306 308 311 313 315 318 321 323 326 328 330 331 333 335 336 338 339 340 341 342 342 343 343 342 342 343 344 345 344 344 345 345 347 348 349 349 349 350
301 302 302 302 301 299 297 295 294 294 293 291 290 288 286 284 282 280 280 282 284 283 279 275 272 270 270 270 271 271 272 274 275 277 279 281 283 285 287 288 290 292 293 295 297 298 300 302 304 306 308 311 313 315 318 321 323 325 327 329 330 332 333 335 336 338 339 340 341 341 342 341 341 341 342 343 343 343 343 343 345 346 348 348 348 349 350
301 300 300 299 298 298 298 297 297 296 295 294 293 292 290 288 285 281 279 280 282 284 284 282 277 274 272 271 272 273 273 274 275 276 278 281 283 285 287 288 290 292 293 295 297 298 300 302 304 306 308 311 313 315 317 320 323 325 327 328 329 331 332 334 335 336 337 338 340 340 341 340 340 340 341 342 342 342 342 343 344 346 347 347 348 348 349
299 298 297 297 296 295 295 295 296 295 295 294 294 293 292 290 287 283 279 279 280 283 285 285 283 280 277 275 274 274 274 275 276 277 278 280 282 284 286 288 290 292 293 295 296 298 300 302 304 306 308 310 313 315 317 319 322 324 325 327 328 329 331 332 333 335 336 337 338 339 340 340 339 340 340 341 341 341 341 342 344 345 346 347 347 348 349
298 297 297 296 295 295 295 295 294 294 294 293 293 293 292 290 288 284 281 278 278 280 283 286 287 287 284 281 279 277 276 276 277 278 279 280 282 283 285 287 289 291 293 295 297 298 300 302 303 305 308 310 312 314 316 318 321 323 324 325 327 328 329 331 332 333 335 336 338 338 339 339 338 338 339 340 340 340 340 342 344 345 346 346 347 347 349
298 297 297 296 296 296 296 295 295 294 293 292 292 292 292 291 289 286 282 279 278 279 281 284 287 289 289 288 286 283 281 279 279 279 280 281 282 284 285 287 288 290 292 294 296 298 300 302 304 305 307 309 311 314 316 318 320 322 323 324 326 327 328 329 331 332 334 335 337 337 338 338 337 338 338 339 339 339 340 342 344 345 345 345 346 347 348
299 298 297 297 296 296 296 296 296 295 293 292 290 290 290 290 289 287 283 280 279 279 280 282 285 288 290 291 291 289 287 284 282 281 281 282 283 284 285 287 288 290 292 294 296 297 299 301 303 305 307 310 312 314 316 318 320 321 322 324 325 326 327 328 330 332 333 334 335 336 337 336 336 337 338 338 338 339 340 342 343 344 344 345 345 347 348
301 301 300 299 298 297 297 296 296 294 293 291 290 289 289 288 288 287 284 281 280 279 280 281 283 285 288 290 291 291 291 290 287 285 283 283 283 284 285 287 288 290 291 293 295 297 299 301 303 305 307 309 312 314 316 318 320 321 322 323 324 325 326 327 329 331 332 333 334 335 336 335 336 336 337 337 338 339 341 342 343 343 343 344 345 346 348
303 303 303 301 300 299 298 296 295 293 291 290 289 288 287 286 286 285 284 282 281 280 280 281 282 284 286 287 289 290 291 292 291 290 288 286 285 285 286 287 288 290 291 293 295 297 298 300 302 304 307 309 311 313 315 317 318 319 320 321 322 323 325 326 328 330 331 332 333 334 334 334 335 336 336 337 338 339 341 342 342 342 343 344 345 346 347
305 306 305 304 304 302 301 299 297 296 293 291 289 287 285 284 283 283 282 282 282 281 281 282 282 283 285 286 288 290 291 292 293 293 292 291 290 288 288 287 288 289 291 292 294 297 299 300 302 304 307 309 311 313 314 316 317 318 318 319 320 322 323 325 327 328 330 331 333 333 333 333 334 335 336 336 338 339 340 341 341 342 342 343 344 345 346
309 309 310 310 310 309 308 306 305 303 301 298 295 292 290 287 286 285 284 283 283 283 283 283 283 284 285 287 288 290 291 293 293 294 294 294 294 293 292 291 290 291 292 293 295 297 300 301 303 305 308 310 311 312 314 315 315 316 317 318 319 321 323 324 326 327 329 331 332 332 332 333 333 334 335 336 337 339 339 340 340 341 342 342 343 344 345
316 317 318 319 318 317 316 315 314 312 310 308 305 302 299 296 293 290 289 287 286 286 285 285 285 286 287 288 289 290 291 293 293 294 295 296 296 296 296 296 296 296 296 297 298 299 301 302 304 305 307 310 311 312 313 314 314 315 316 318 320 321 322 323 324 326 328 330 331 331 331 332 333 334 335 336 337 337 338 338 339 340 341 341 342 343 344
327 327 328 328 327 326 325 324 323 321 320 318 315 311 308 304 301 298 295 293 291 290 290 290 289 289 290 291 291 292 293 294 295 295 296 297 297 298 299 300 301 302 303 303 303 302 303 304 305 306 307 309 311 312 313 313 314 315 317 319 321 321 321 322 323 326 328 329 330 330 331 332 333 334 335 335 336 336 336 337 338 339 340 341 341 342 342
340 340 340 339 337 336 335 335 334 333 331 329 326 323 319 315 311 309 306 303 300 298 297 296 296 296 296 296 297 297 298 299 300 300 300 301 302 303 303 303 305 306 307 307 306 306 306 306 307 307 308 310 312 313 314 315 316 317 319 320 320 320 320 321 323 326 327 328 329 330 331 332 333 333 334 334 334 335 335 335 336 337 339 340 340 341 341
353 353 352 350 348 347 347 347 346 345 343 341 339 335 332 328 324 321 318 315 313 311 308 307 306 305 304 304 305 306 306 307 309 309 310 310 310 310 310 309 309 310 310 309 309 308 308 309 310 311 312 314 315 317 317 318 318 319 319 319 319 319 320 321 323 325 327 328 329 330 330 331 332 332 332 333 333 333 333 334 335 336 337 339 339 340 340
5 3 2 1 359 358 357 357 357 356 354 352 349 347 344 340 337 334 331 328 326 324 322 320 319 318 317 316 316 317 318 318 318 318 318 318 317 316 315 313 312 312 312 311 311 312 312 314 315 316 317 317 317 318 319 319 319 318 318 319 319 319 320 322 323 325 326 327 328 329 330 330 331 331 331 331 331 332 332 333 334 335 336 338 338 339 339
14 12 10 9 7 5 4 3 3 3 2 1 359 357 354 351 348 345 343 340 337 335 333 331 330 329 328 327 326 326 327 326 324 321 321 321 321 319 317 315 314 313 314 315 316 316 317 318 318 318 317 317 317 318 319 318 318 318 318 319 319 320 321 323 324 325 326 327 328 329 329 329 330 330 330 330 330 331 332 332 334 335 336 337 337 338 339
18 16 15 14 13 11 10 8 7 7 6 5 4 3 2 1 359 357 355 353 350 347 346 345 343 341 339 337 335 334 334 331 327 324 323 324 324 322 320 318 317 317 318 319 319 319 318 318 318 317 318 318 318 319 319 318 318 319 320 321 322 322 323 324 325 325 326 327 327 328 328 328 328 329 329 330 330 331 332 332 333 334 335 336 336 337 337
17 15 14 13 13 12 11 10 10 9 8 7 6 5 4 3 2 2 1 0 360 359 358 357 355 353 350 347 345 343 340 336 333 330 329 329 328 326 324 322 320 320 321 322 321 320 318 318 318 318 319 319 319 320 321 321 321 322 323 324 324 324 324 324 324 325 325 326 326 327 327 327 328 328 329 330 331 331 331 332 332 333 334 335 335 336 336
10 10 9 8 8 8 8 7 7 6 6 5 4 3 2 1 1 0 0 0 0 0 360 359 357 355 351 348 346 344 342 340 337 334 332 330 328 327 326 324 323 323 323 322 321 320 320 319 319 320 321 322 323 325 325 325 324 325 325 325 324 323 323 323 323 323 324 325 325 326 326 327 327 328 329 329 330 331 331 331 331 332 333 333 334 334 334
359 360 1 1 0 1 1 1 1 0 0 360 359 358 357 356 355 355 355 356 357 357 358 358 357 355 352 348 346 345 344 342 339 336 333 330 328 327 326 325 325 324 324 324 324 325 325 325 325 326 327 328 328 328 327 326 324 324 323 323 322 321 321 321 321 322 322 323 324 324 325 326 326 327 328 328 329 330 330 330 330 331 331 331 332 332 332
348 349 351 352 352 352 353 354 354 353 353 353 352 350 350 349 348 347 347 348 348 350 351 352 353 351 349 347 346 346 345 344 341 338 336 333 331 330 330 329 327 327 327 328 329 330 329 329 329 329 329 328 328 326 325 323 322 321 321 320 320 319 319 319 319 319 320 321 321 322 323 324 325 326 326 327 328 329 329 329 328 328 329 329 329 330 330
Height
10665 10666 10667 10668 10669 10669 10670 10671 10672 10673 10674 10675 10677 10678 10679 10680 10681 10682 10684 10685 10685 10686 10687 10688 10689 10689 10689 10690 10690 10690 10690 10689 10689 10689 10688 10687 10685 10684 10682 10681 10679 10677 10675 10673 10670 10667 10664 10661 10658 10655 10651 10647 10643 10638 10633 10628 10622 10616 10610 10605 10601 10597 10593 10587 10580 10572 10563 10556 10547 10535 10523 10514 10504 10494 10483 10472 10461 10450 10438 10427 10418 10408 10397 10389 10378 10360 10343
10665 10666 10667 10668 10669 10669 10671 10672 10673 10674 10675 10676 10677 10678 10680 10681 10682 10683 10684 10686 10686 10687 10687 10688 10689 10689 10689 10689 10689 10689 10689 10689 10689 10688 10687 10686 10684 10683 10681 10679 10678 10676 10673 10671 10669 10666 10663 10660 10657 10653 10650 10646 10641 10637 10631 10626 10620 10613 10607 10600 10594 10589 10585 10581 10577 10573 10567 10558 10548 10537 10524 10511 10500 10489 10479 10470 10460 10451 10441 10431 10421 10408 10392 10381 10374 10363 10349
10665 10666 10667 10668 10669 10670 10671 10672 10673 10674 10675 10676 10678 10679 10680 10681 10682 10683 10685 10686 10687 10687 10687 10688 10688 10689 10689 10689 10689 10689 10689 10688 10688 10687 10686 10685 10683 10682 10680 10678 10676 10674 10672 10670 10667 10664 10662 10659 10655 10651 10648 10644 10639 10635 10630 10624 10618 10612 10605 10597 10590 10583 10577 10571 10565 10558 10551 10543 10534 10526 10517 10506 10497 10487 10478 10471 10464 10454 10443 10432 10421 10410 10393 10376 10364 10357 10348
10665 10666 10667 10668 10669 10670 10671 10672 10673 10675 10676 10677 10678 10679 10680 10682 10682 10684 10685 10686 10687 10687 10688 10688 10688 10688 10689 10689 10689 10688 10688 10688 10687 10686 10685 10683 10682 10681 10679 10677 10675 10673 10671 10668 10666 10663 10660 10657 10653 10650 10646 10642 10638 10633 10628 10623 10617 10611 10605 10597 10589 10581 10573 10565 10558 10550 10542 10534 10526 10518 10511 10503 10495 10487 10480 10473 10465 10454 10443 10432 10421 10411 10400 10384 10367 10354 10345
10665 10666 10667 10668 10669 10670 10671 10672 10674 10675 10676 10678 10679 10680 10681 10682 10683 10684 10685 10686 10686 10687 10687 10688 10688 10688 10688 10688 10688 10688 10687 10687 10686 10685 10684 10682 10681 10679 10677 10676 10674 10672 10669 10667 10664 10662 10658 10655 10652 10648 10644 10640 10636 10632 10627 10622 10616 10610 10604 10598 10590 10581 10572 10564 10556 10549 10542 10535 10527 10518 10510 10503 10495 10487 10480 10472 10463 10453 10442 10431 10419 10409 10402 10393 10378 10360 10345
10666 10666 10667 10668 10669 10670 10672 10673 10674 10676 10677 10678 10679 10680 10681 10682 10683 10684 10684 10685 10686 10687 10687 10687 10687 10687 10687 10687 10687 10687 10686 10686 10685 10684 10682 10681 10680 10678 10676 10674 10672 10670 10668 10665 10663 10660 10657 10653 10650 10646 10643 10639 10634 10630 10625 10620 10615 10610 10604 10597 10590 10582 10574 10565 10557 10549 10542 10534 10528 10520 10512 10504 10496 10487 10479 10470 10461 10452 10442 10431 10422 10410 10396 10384 10373 10359 10340
10666 10667 10667 10668 10670 10671 10672 10673 10675 10676 10677 10678 10679 10680 10681 10682 10683 10684 10684 10685 10686 10686 10687 10687 10686 10686 10686 10686 10686 10686 10685 10684 10684 10682 10681 10680 10678 10677 10675 10673 10671 10668 10666 10664 10661 10658 10654 10651 10647 10644 10640 10636 10632 10628 10624 10619 10614 10609 10603 10596 10590 10583 10575 10567 10559 10550 10543 10535 10529 10522 10514 10505 10496 10488 10480 10470 10460 10450 10441 10433 10422 10407 10391 10378 10368 10355 10338
10666 10667 10668 10669 10670 10671 10672 10674 10675 10676 10677 10678 10679 10680 10681 10682 10683 10683 10684 10685 10685 10686 10686 10686 10686 10686 10685 10685 10685 10685 10684 10683 10682 10681 10680 10678 10677 10675 10673 10671 10669 10667 10665 10662 10659 10656 10652 10649 10645 10642 10638 10634 10630 10626 10622 10618 10613 10607 10602 10595 10589 10583 10576 10569 10560 10552 10545 10537 10529 10522 10514 10505 10498 10491 10482 10470 10460 10451 10443 10432 10418 10405 10395 10383 10369 10355 10342
10667 10668 10669 10670 10671 10672 10673 10674 10675 10677 10678 10678 10679 10680 10681 10682 10682 10683 10683 10684 10684 10685 10685 10685 10685 10684 10684 10684 10684 10683 10683 10682 10681 10680 10678 10677 10675 10674 10672 10670 10668 10665 10663 10660 10657 10654 10651 10647 10643 10640 10636 10632 10629 10625 10620 10616 10611 10606 10600 10594 10587 10582 10576 10569 10562 10554 10545 10537 10530 10522 10514 10506 10500 10492 10482 10472 10462 10452 10440 10426 10413 10404 10396 10383 10368 10353 10339
10667 10668 10669 10670 10671 10672 10673 10674 10675 10676 10677 10678 10679 10680 10681 10681 10682 10682 10683 10683 10683 10684 10684 10683 10683 10683 10683 10683 10682 10682 10681 10681 10679 10678 10677 10675 10674 10672 10670 10668 10666 10664 10661 10659 10656 10652 10649 10646 10642 10638 10635 10631 10627 10623 10619 10614 10609 10604 10598 10592 10586 10581 10575 10569 10563 10554 10546 10537 10528 10520 10513 10508 10501 10491 10482 10473 10461 10449 10438 10428 10416 10402 10387 10373 10362 10349 10336
10668 10669 10670 10670 10671 10673 10674 10675 10675 10676 10677 10678 10679 10680 10680 10681 10681 10682 10682 10682 10682 10682 10682 10682 10682 10681 10681 10681 10681 10681 10680 10679 10678 10677 10675 10674 10672 10671 10669 10667 10665 10662 10660 10657 10654 10651 10647 10644 10641 10637 10633 10629 10625 10621 10617 10612 10607 10602 10597 10591 10585 10579 10573 10567 10560 10553 10546 10538 10530 10523 10516 10509 10499 10488 10479 10470 10458 10445 10433 10423 10413 10401 10388 10377 10366 10355 10344
10668 10669 10670 10671 10672 10673 10674 10674 10675 10676 10677 10677 10678 10679 10680 10680 10681 10681 10681 10681 10681 10681 10680 10680 10680 10680 10680 10679 10679 10679 10678 10677 10676 10675 10674 10672 10671 10669 10667 10665 10663 10660 10658 10655 10652 10649 10646 10642 10639 10635 10631 10627 10623 10619 10615 10610 10605 10600 10595 10590 10584 10578 10571 10565 10558 10551 10544 10537 10530 10524 10515 10503 10493 10486 10478 10467 10457 10445 10432 10420 10412 10404 10395 10385 10375 10363 10350
10669 10669 10670 10671 10672 10673 10674 10674 10675 10675 10676 10677 10678 10678 10679 10679 10680 10680 10680 10680 10680 10679 10679 10678 10678 10678 10678 10678 10678 10677 10676 10676 10674 10673 10672 10670 10669 10667 10665 10663 10661 10659 10656 10653 10650 10647 10644 10640 10637 10633 10629 10625 10621 10617 10612 10607 10602 10597 10593 10587 10582 10576 10569 10562 10556 10549 10542 10534 10525 10514 10505 10497 10491 10484 10476 10468 10459 10450 10439 10428 10416 10405 10395 10386 10376 10363 10349
10669 10669 10670 10671 10672 10673 10673 10674 10674 10675 10675 10676 10677 10677 10678 10678 10679 10679 10679 10679 10678 10678 10678 10677 10677 10676 10676 10676 10676 10675 10675 10674 10673 10671 10670 10668 10667 10665 10663 10661 10659 10657 10654 10651 10648 10645 10641 10638 10634 10631 10627 10623 10618 10613 10609 10605 10600 10595 10590 10584 10579 10573 10566 10559 10553 10546 10539 10532 10524 10515 10506 10499 10491 10481 10471 10462 10452 10442 10431 10420 10410 10400 10391 10381 10369 10357 10346
10668 10669 10670 10671 10671 10672 10673 10673 10674 10674 10675 10675 10676 10676 10677 10677 10677 10678 10678 10677 10677 10676 10676 10676 10675 10675 10675 10674 10674 10673 10673 10672 10671 10669 10668 10666 10665 10663 10661 10659 10657 10654 10652 10649 10646 10643 10639 10636 10632 10629 10625 10621 10617 10612 10607 10602 10597 10592 10587 10581 10575 10569 10562 10556 10549 10542 10535 10528 10523 10517 10509 10499 10488 10477 10467 10455 10445 10435 10423 10412 10403 10396 10386 10375 10363 10353 10344
10668 10669 10669 10670 10671 10671 10672 10672 10673 10673 10674 10674 10675 10675 10675 10676 10676 10676 10676 10676 10675 10675 10674 10674 10673 10673 10673 10672 10672 10671 10671 10669 10668 10667 10666 10664 10663 10661 10659 10657 10655 10652 10649 10647 10643 10640 10637 10633 10630 10626 10623 10619 10615 10610 10605 10600 10594 10588 10583 10578 10572 10566 10560 10553 10546 10539 10532 10524 10515 10508 10501 10493 10483 10474 10464 10454 10444 10435 10426 10417 10406 10395 10384 10375 10364 10353 10342
10668 10668 10669 10669 10670 10670 10671 10671 10672 10672 10673 10673 10673 10674 10674 10674 10674 10675 10674 10674 10674 10673 10673 10672 10672 10671 10671 10670 10670 10669 10668 10667 10666 10665 10663 10662 10660 10659 10657 10655 10652 10650 10647 10644 10641 10638 10634 10631 10627 10624 10620 10616 10612 10608 10604 10599 10593 10588 10582 10576 10570 10564 10558 10552 10545 10538 10531 10523 10514 10504 10495 10488 10480 10471 10463 10453 10442 10433 10428 10422 10411 10397 10386 10375 10363 10350 10338
10667 10668 10668 10668 10669 10669 10669 10670 10670 10671 10671 10672 10672 10672 10672 10673 10673 10673 10673 10672 10672 10672 10671 10670 10670 10669 10668 10668 10667 10667 10666 10665 10663 10662 10661 10659 10658 10656 10654 10652 10650 10648 10645 10642 10639 10636 10632 10628 10625 10621 10617 10613 10609 10605 10601 10597 10592 10586 10581 10575 10569 10562 10556 10551 10544 10537 10530 10522 10514 10504 10494 10486 10479 10471 10461 10452 10443 10433 10424 10415 10405 10395 10383 10371 10359 10347 10335
10667 10667 10667 10668 10668 10668 10668 10668 10669 10669 10669 10670 10670 10670 10670 10670 10671 10671 10670 10670 10670 10670 10669 10668 10668 10667 10666 10666 10665 10664 10663 10662 10661 10660 10658 10657 10655 10653 10652 10650 10647 10645 10642 10639 10636 10633 10630 10626 10622 10618 10615 10610 10606 10602 10597 10593 10589 10584 10578 10573 10567 10561 10555 10548 10542 10535 10528 10521 10514 10507 10498 10488 10479 10469 10459 10450 10441 10432 10419 10407 10399 10391 10380 10368 10358 10348 10336
10666 10666 10666 10666 10667 10667 10667 10667 10667 10667 10668 10668 10668 10668 10668 10668 10668 10668 10668 10668 10668 10668 10667 10666 10666 10665 10664 10663 10663 10662 10661 10660 10658 10657 10656 10654 10652 10651 10649 10647 10645 10642 10639 10637 10634 10630 10627 10623 10619 10616 10612 10608 10604 10599 10594 10589 10584 10580 10575 10569 10563 10557 10552 10546 10539 10532 10525 10517 10511 10504 10495 10485 10475 10466 10458 10449 10438 10428 10418 10407 10398 10389 10379 10369 10359 10349 10338
10665 10665 10665 10665 10665 10665 10665 10665 10665 10665 10665 10665 10666 10666 10666 10666 10666 10666 10666 10665 10665 10665 10665 10664 10664 10663 10662 10661 10660 10659 10658 10657 10655 10654 10653 10651 10649 10648 10646 10644 10641 10639 10637 10634 10631 10627 10624 10620 10617 10613 10609 10605 10601 10597 10592 10587 10581 10576 10571 10565 10559 10553 10547 10541 10533 10526 10519 10511 10502 10493 10485 10477 10470 10463 10455 10447 10437 10427 10418 10409 10400 10390 10381 10370 10360 10349 10338
10664 10664 10664 10664 10663 10663 10663 10663 10663 10663 10663 10663 10663 10663 10663 10663 10663 10663 10663 10663 10662 10662 10662 10661 10661 10660 10659 10658 10657 10656 10655 10654 10653 10651 10650 10648 10646 10644 10643 10641 10638 10636 10633 10630 10627 10624 10621 10617 10614 10610 10606 10602 10598 10594 10589 10585 10580 10574 10568 10563 10557 10550 10543 10537 10530 10521 10513 10506 10499 10492 10485 10478 10470 10462 10454 10445 10436 10427 10417 10408 10399 10390 10381 10371 10361 10351 10340
10662 10662 10662 10662 10662 10662 10662 10661 10661 10661 10660 10660 10660 10660 10660 10660 10660 10660 10660 10660 10659 10659 10659 10658 10658 10657 10657 10656 10655 10653 10652 10651 10650 10648 10647 10645 10643 10641 10639 10637 10635 10632 10630 10627 10624 10621 10618 10614 10611 10607 10603 10599 10595 10591 10586 10582 10577 10572 10567 10561 10555 10548 10542 10535 10529 10523 10514 10506 10499 10491 10484 10476 10467 10459 10452 10443 10435 10426 10417 10407 10397 10388 10380 10371 10362 10351 10341
10661 10660 10660 10660 10660 10660 10659 10659 10659 10658 10658 10657 10657 10657 10657 10657 10657 10657 10657 10656 10656 10656 10655 10655 10655 10654 10653 10652 10651 10650 10649 10648 10646 10645 10643 10642 10640 10638 10636 10634 10632 10629 10626 10624 10621 10618 10614 10611 10607 10604 10600 10596 10592 10588 10583 10579 10574 10570 10565 10559 10553 10547 10541 10534 10527 10521 10515 10506 10498 10489 10481 10473 10465 10457 10449 10441 10432 10424 10415 10406 10396 10387 10378 10370 10361 10351 10340
10658 10658 10658 10658 10657 10657 10657 10656 10656 10655 10655 10654 10654 10654 10654 10653 10653 10653 10653 10653 10652 10652 10652 10651 10651 10651 10650 10649 10648 10647 10646 10644 10643 10642 10640 10638 10636 10635 10632 10630 10628 10626 10623 10620 10617 10614 10611 10607 10604 10600 10596 10592 10588 10584 10580 10575 10571 10566 10561 10556 10551 10545 10539 10533 10525 10519 10512 10505 10497 10489 10480 10472 10464 10456 10447 10440 10432 10423 10414 10405 10396 10386 10376 10367 10358 10349 10339
10656 10655 10655 10655 10654 10654 10654 10653 10653 10652 10652 10652 10651 10650 10650 10650 10649 10650 10649 10649 10648 10648 10648 10648 10647 10647 10646 10646 10645 10643 10642 10641 10640 10638 10636 10635 10633 10631 10629 10626 10624 10622 10619 10616 10613 10610 10607 10604 10600 10597 10593 10588 10584 10581 10576 10572 10568 10562 10557 10552 10547 10542 10536 10530 10523 10516 10510 10503 10496 10488 10480 10472 10464 10457 10449 10441 10432 10424 10414 10405 10396 10386 10376 10365 10356 10347 10339
10654 10653 10653 10652 10651 10651 10651 10650 10650 10649 10649 10648 10648 10647 10647 10646 10646 10646 10645 10645 10645 10644 10644 10644 10643 10643 10642 10642 10641 10640 10639 10637 10636 10634 10633 10631 10629 10627 10625 10623 10620 10618 10615 10612 10610 10606 10603 10600 10597 10593 10590 10585 10581 10577 10573 10568 10564 10560 10554 10548 10543 10538 10532 10526 10520 10513 10506 10499 10492 10485 10478 10471 10463 10455 10448 10440 10432 10424 10415 10406 10396 10386 10377 10367 10357 10347 10338
10651 10651 10650 10649 10649 10648 10647 10647 10646 10646 10646 10645 10645 10644 10643 10643 10642 10642 10641 10641 10641 10641 10640 10640 10639 10638 10638 10638 10637 10636 10635 10633 10632 10630 10628 10627 10625 10623 10621 10619 10616 10614 10611 10609 10606 10603 10599 10597 10593 10590 10586 10582 10577 10574 10570 10565 10560 10556 10551 10545 10540 10534 10528 10522 10515 10508 10501 10495 10488 10482 10475 10467 10460 10452 10445 10438 10430 10422 10414 10405 10395 10386 10377 10368 10358 10349 10339
10649 10648 10647 10646 10646 10645 10644 10644 10643 10642 10642 10641 10641 10640 10640 10639 10638 10638 10637 10637 10637 10637 10636 10635 10635 10634 10634 10633 10632 10631 10630 10629 10627 10626 10624 10623 10621 10619 10617 10615 10612 10610 10607 10604 10602 10599 10595 10592 10590 10587 10583 10579 10575 10571 10567 10562 10556 10552 10547 10542 10536 10531 10525 10518 10512 10506 10499 10492 10485 10479 10472 10465 10457 10449 10442 10435 10427 10420 10412 10403 10394 10385 10376 10367 10357 10348 10339
10646 10645 10644 10644 10643 10642 10641 10641 10640 10639 10638 10638 10637 10636 10636 10635 10635 10634 10633 10632 10632 10632 10632 10631 10630 10630 10629 10629 10628 10627 10626 10624 10623 10621 10620 10618 10616 10615 10613 10611 10608 10606 10603 10600 10597 10595 10592 10588 10586 10583 10579 10576 10572 10568 10565 10560 10554 10549 10544 10539 10533 10528 10522 10515 10509 10504 10497 10490 10483 10476 10469 10462 10455 10447 10440 10432 10424 10417 10409 10401 10392 10383 10374 10365 10356 10347 10338
10643 10643 10642 10641 10641 10640 10639 10638 10637 10636 10635 10634 10633 10633 10632 10631 10631 10630 10629 10629 10628 10627 10627 10626 10626 10625 10625 10624 10623 10622 10621 10619 10618 10617 10615 10613 10612 10610 10608 10606 10604 10601 10599 10596 10593 10590 10588 10585 10582 10579 10576 10572 10568 10564 10561 10558 10553 10547 10542 10537 10531 10525 10519 10513 10506 10500 10495 10489 10482 10475 10467 10460 10453 10446 10438 10430 10422 10414 10406 10398 10390 10381 10373 10364 10356 10346 10337
10641 10640 10640 10639 10638 10637 10636 10635 10634 10633 10632 10631 10630 10629 10628 10627 10627 10626 10626 10625 10624 10623 10622 10621 10621 10620 10619 10618 10618 10617 10616 10614 10613 10612 10610 10609 10607 10605 10603 10601 10599 10597 10594 10592 10589 10586 10583 10581 10578 10575 10572 10569 10565 10560 10556 10553 10550 10545 10539 10534 10528 10522 10516 10510 10504 10498 10492 10486 10480 10473 10466 10459 10451 10443 10435 10427 10419 10411 10403 10395 10387 10379 10371 10363 10354 10346 10337
10638 10638 10637 10636 10635 10634 10633 10632 10631 10630 10628 10627 10626 10625 10624 10623 10622 10622 10621 10621 10620 10619 10618 10617 10616 10615 10614 10613 10612 10611 10610 10609 10608 10607 10606 10604 10602 10601 10599 10597 10594 10592 10590 10588 10585 10581 10579 10576 10573 10571 10568 10565 10562 10557 10552 10548 10545 10540 10535 10530 10524 10518 10512 10506 10500 10494 10488 10482 10476 10470 10463 10456 10448 10440 10432 10425 10417 10408 10400 10392 10385 10377 10369 10361 10353 10344 10334
10636 10635 10634 10633 10632 10631 10630 10629 10627 10626 10625 10624 10622 10621 10620 10619 10618 10617 10617 10616 10615 10614 10613 10612 10611 10610 10608 10608 10607 10606 10605 10604 10603 10602 10601 10599 10598 10596 10594 10592 10590 10587 10585 10583 10580 10577 10574 10572 10569 10566 10563 10560 10557 10554 10549 10544 10540 10536 10531 10526 10520 10514 10508 10502 10497 10491 10485 10479 10473 10466 10459 10452 10445 10437 10429 10422 10414 10406 10398 10390 10382 10375 10367 10359 10351 10342 10332
10633 10632 10631 10630 10628 10627 10626 10625 10624 10623 10621 10620 10619 10618 10617 10615 10614 10613 10612 10612 10611 10610 10609 10608 10607 10605 10604 10603 10602 10601 10600 10599 10598 10597 10596 10594 10593 10591 10589 10587 10585 10583 10580 10578 10576 10573 10570 10567 10564 10562 10559 10556 10552 10549 10546 10541 10536 10532 10527 10521 10516 10510 10505 10499 10493 10487 10481 10476 10470 10463 10456 10449 10442 10434 10427 10420 10412 10404 10396 10388 10381 10373 10365 10357 10349 10340 10331
10629 10628 10627 10626 10625 10623 10622 10621 10620 10619 10617 10616 10615 10614 10613 10612 10610 10609 10608 10607 10606 10606 10605 10603 10602 10601 10600 10599 10597 10596 10595 10594 10592 10591 10591 10589 10588 10586 10584 10582 10580 10577 10575 10574 10571 10568 10565 10562 10559 10557 10554 10551 10547 10544 10541 10537 10532 10527 10522 10516 10511 10506 10500 10495 10489 10483 10477 10472 10466 10460 10453 10446 10439 10431 10424 10417 10409 10402 10394 10386 10378 10371 10363 10355 10347 10339 10330
10626 10624 10623 10622 10621 10619 10618 10617 10616 10614 10613 10612 10611 10610 10609 10608 10606 10605 10604 10603 10602 10601 10600 10599 10598 10597 10595 10594 10592 10591 10590 10588 10587 10585 10585 10584 10582 10580 10579 10577 10575 10572 10570 10568 10566 10563 10560 10558 10555 10551 10549 10546 10542 10539 10535 10531 10526 10522 10517 10512 10506 10501 10495 10490 10484 10479 10474 10468 10462 10457 10450 10443 10436 10428 10421 10414 10406 10399 10391 10383 10376 10368 10361 10353 10344 10336 10328
10622 10620 10619 10618 10617 10616 10614 10613 10612 10611 10609 10608 10607 10606 10605 10603 10602 10601 10600 10598 10597 10596 10595 10594 10593 10592 10590 10589 10588 10586 10584 10583 10581 10580 10579 10578 10576 10575 10573 10572 10570 10568 10565 10563 10561 10558 10555 10552 10549 10546 10543 10540 10537 10533 10529 10525 10521 10516 10511 10506 10501 10495 10490 10485 10479 10474 10469 10464 10458 10452 10446 10439 10432 10425 10417 10410 10403 10396 10388 10381 10373 10366 10358 10350 10342 10333 10325
10618 10617 10616 10614 10613 10612 10611 10609 10608 10607 10606 10604 10603 10602 10601 10599 10598 10596 10595 10594 10592 10591 10590 10589 10588 10587 10585 10584 10583 10581 10580 10578 10576 10575 10573 10572 10571 10569 10568 10566 10564 10562 10560 10558 10555 10553 10551 10548 10545 10542 10538 10534 10531 10528 10524 10520 10516 10511 10506 10501 10495 10489 10484 10479 10474 10469 10464 10459 10453 10447 10441 10434 10428 10421 10414 10407 10400 10393 10386 10379 10371 10363 10356 10348 10339 10331 10322
10615 10614 10613 10611 10610 10609 10607 10606 10604 10603 10602 10600 10599 10598 10596 10594 10593 10592 10590 10589 10588 10586 10585 10584 10583 10581 10580 10579 10578 10576 10575 10573 10572 10570 10568 10567 10566 10564 10562 10561 10559 10557 10555 10553 10550 10548 10546 10543 10540 10537 10534 10531 10527 10523 10520 10515 10511 10506 10501 10496 10490 10484 10479 10474 10470 10465 10460 10455 10449 10443 10436 10429 10423 10417 10411 10404 10397 10391 10384 10376 10368 10360 10353 10345 10337 10329 10320
10613 10611 10610 10609 10607 10606 10604 10603 10601 10600 10598 10596 10595 10593 10592 10590 10589 10587 10585 10584 10583 10581 10580 10579 10578 10576 10575 10574 10573 10571 10570 10568 10567 10565 10564 10562 10561 10559 10557 10555 10554 10553 10551 10548 10545 10543 10542 10539 10535 10532 10530 10527 10523 10519 10516 10511 10507 10502 10497 10492 10486 10480 10475 10470 10466 10461 10456 10451 10445 10439 10432 10425 10419 10413 10407 10400 10394 10387 10380 10373 10366 10358 10350 10342 10334 10326 10318
10611 10609 10608 10606 10605 10603 10601 10600 10598 10596 10594 10593 10591 10589 10587 10586 10584 10582 10581 10579 10578 10577 10575 10574 10573 10572 10570 10569 10568 10567 10565 10563 10562 10560 10559 10557 10556 10554 10552 10550 10549 10547 10546 10544 10541 10539 10537 10535 10531 10527 10524 10522 10519 10515 10511 10507 10502 10497 10492 10488 10482 10476 10471 10466 10461 10457 10452 10447 10441 10434 10428 10421 10415 10409 10403 10396 10390 10383 10376 10369 10362 10355 10347 10339 10331 10323 10316
10609 10607 10606 10604 10602 10600 10598 10597 10595 10592 10590 10588 10586 10584 10583 10581 10579 10577 10576 10574 10573 10571 10570 10569 10568 10566 10565 10564 10563 10562 10560 10558 10557 10555 10554 10552 10551 10549 10547 10545 10543 10542 10540 10538 10536 10533 10531 10529 10527 10523 10519 10516 10514 10511 10507 10502 10497 10492 10487 10483 10478 10473 10467 10461 10457 10452 10448 10442 10436 10430 10423 10417 10411 10404 10398 10392 10386 10379 10372 10365 10359 10352 10344 10336 10328 10320 10312
10607 10606 10604 10602 10600 10598 10596 10594 10592 10589 10587 10585 10582 10580 10578 10576 10574 10573 10571 10570 10568 10567 10566 10564 10563 10562 10560 10559 10558 10557 10555 10553 10552 10550 10549 10548 10546 10545 10543 10541 10539 10537 10535 10533 10530 10527 10525 10523 10521 10518 10514 10510 10508 10505 10501 10497 10492 10488 10483 10478 10474 10468 10462 10457 10452 10448 10443 10438 10431 10425 10419 10413 10406 10400 10394 10388 10381 10375 10368 10361 10355 10348 10340 10333 10324 10317 10309
10606 10604 10603 10601 10598 10596 10594 10592 10590 10587 10584 10582 10579 10577 10575 10572 10571 10569 10567 10566 10565 10563 10562 10560 10559 10558 10556 10555 10553 10552 10551 10550 10548 10546 10545 10543 10542 10541 10539 10537 10534 10532 10530 10527 10525 10522 10520 10517 10515 10513 10510 10506 10502 10499 10495 10491 10487 10482 10478 10473 10468 10463 10458 10452 10447 10442 10437 10432 10427 10421 10415 10408 10402 10395 10389 10383 10376 10370 10363 10357 10350 10343 10336 10329 10321 10313 10305
10604 10603 10601 10599 10597 10595 10593 10591 10588 10586 10583 10580 10578 10575 10573 10570 10568 10567 10565 10564 10562 10561 10559 10558 10556 10554 10553 10552 10550 10549 10548 10547 10544 10542 10541 10539 10538 10536 10534 10532 10529 10527 10525 10523 10520 10517 10516 10513 10510 10508 10504 10501 10497 10494 10490 10485 10481 10476 10472 10467 10463 10457 10452 10447 10442 10437 10432 10427 10422 10416 10410 10403 10397 10390 10384 10377 10371 10364 10358 10351 10345 10338 10331 10324 10316 10308 10301
10604 10602 10601 10599 10597 10595 10593 10590 10588 10585 10583 10580 10577 10575 10573 10570 10568 10566 10564 10562 10561 10559 10557 10556 10554 10552 10551 10549 10547 10546 10545 10544 10541 10539 10537 10535 10534 10532 10529 10527 10524 10522 10521 10519 10517 10514 10511 10509 10506 10503 10500 10496 10492 10488 10484 10480 10475 10471 10467 10462 10457 10452 10447 10442 10437 10432 10427 10422 10416 10411 10404 10398 10391 10385 10378 10371 10365 10359 10352 10345 10339 10333 10326 10319 10312 10304 10296
10603 10602 10600 10599 10597 10594 10592 10590 10587 10585 10583 10580 10578 10575 10573 10570 10568 10566 10564 10562 10560 10559 10557 10555 10553 10551 10549 10548 10546 10544 10542 10541 10538 10536 10534 10532 10531 10528 10526 10523 10520 10518 10517 10516 10514 10511 10507 10505 10502 10498 10495 10491 10488 10483 10479 10474 10470 10465 10461 10456 10451 10446 10441 10436 10431 10426 10421 10416 10411 10405 10399 10393 10386 10379 10372 10365 10359 10352 10345 10339 10333 10327 10320 10314 10306 10299 10291
10603 10602 10600 10598 10596 10594 10592 10590 10587 10585 10582 10580 10577 10575 10573 10571 10568 10567 10565 10563 10561 10559 10557 10555 10553 10551 10549 10547 10544 10542 10540 10538 10536 10534 10532 10530 10528 10526 10523 10521 10518 10516 10513 10512 10510 10507 10503 10501 10498 10495 10490 10486 10483 10479 10474 10469 10464 10459 10455 10451 10445 10440 10435 10430 10425 10420 10415 10410 10405 10399 10394 10387 10381 10374 10367 10360 10353 10346 10339 10332 10326 10320 10314 10308 10301 10294 10286
10603 10601 10599 10597 10595 10593 10591 10589 10587 10584 10582 10579 10577 10575 10572 10570 10568 10566 10564 10562 10561 10559 10557 10554 10552 10550 10547 10545 10543 10541 10538 10535 10533 10532 10530 10528 10526 10524 10521 10518 10516 10514 10510 10507 10504 10502 10499 10496 10494 10491 10487 10482 10478 10474 10470 10464 10459 10454 10450 10445 10440 10434 10429 10424 10419 10414 10409 10404 10399 10393 10388 10382 10375 10368 10361 10354 10348 10341 10333 10325 10319 10314 10308 10301 10294 10287 10281
10601 10600 10598 10596 10594 10592 10590 10588 10586 10584 10581 10579 10576 10574 10571 10569 10567 10565 10563 10562 10560 10558 10556 10554 10552 10549 10547 10545 10542 10540 10536 10533 10530 10528 10526 10524 10523 10521 10518 10515 10512 10510 10507 10503 10499 10496 10493 10490 10488 10486 10482 10478 10473 10469 10464 10459 10453 10448 10444 10440 10435 10429 10424 10419 10414 10409 10403 10398 10393 10387 10382 10376 10370 10363 10356 10349 10343 10336 10328 10320 10312 10307 10301 10295 10288 10281 10274
10600 10598 10597 10595 10593 10591 10589 10587 10585 10582 10580 10578 10575 10572 10570 10568 10565 10563 10561 10559 10558 10557 10555 10553 10551 10548 10546 10544 10541 10539 10536 10532 10528 10525 10522 10520 10518 10516 10514 10511 10508 10506 10504 10501 10496 10492 10487 10483 10481 10479 10476 10472 10468 10463 10459 10454 10448 10443 10438 10434 10430 10424 10419 10414 10409 10404 10398 10393 10387 10382 10376 10370 10364 10358 10351 10344 10338 10332 10324 10315 10307 10300 10295 10289 10282 10275 10268